GBAFG EGNT-EGNM

Flight info

Callsign GBAFG
Flight time N/A
Altitude 18000
Route GIRLI
Aircraft TBM9/L-SBDFGM3RWXY/LB1

Departure

Time 2026-04-29 22:49
Airport Newcastle International Airport (EGNT)

Arrival

Time N/A
Airport Leeds Bradford Airport (EGNM)
Time Latitude Longitude Altitude Speed Heading
2026-04-29 22:28 55.03675 -1.70598 260 ft 0 kts 319°
2026-04-29 22:40 55.03676 -1.70606 260 ft 3 kts 260°
2026-04-29 22:41 55.03648 -1.70594 260 ft 2 kts 150°
2026-04-29 22:41 55.03647 -1.70594 260 ft 0 kts 151°
2026-04-29 22:42 55.03621 -1.70548 259 ft 16 kts 113°
2026-04-29 22:42 55.03707 -1.70426 258 ft 21 kts 359°
2026-04-29 22:43 55.03780 -1.70310 259 ft 15 kts 93°
2026-04-29 22:43 55.03774 -1.70148 257 ft 12 kts 92°
2026-04-29 22:43 55.03775 -1.69975 257 ft 20 kts 88°
2026-04-29 22:43 55.03799 -1.69672 255 ft 31 kts 70°
2026-04-29 22:44 55.03894 -1.69283 248 ft 33 kts 69°
2026-04-29 22:44 55.03975 -1.68974 248 ft 24 kts 64°
2026-04-29 22:44 55.04044 -1.68716 247 ft 25 kts 62°
2026-04-29 22:44 55.04119 -1.68426 242 ft 27 kts 64°
2026-04-29 22:45 55.04197 -1.68105 237 ft 29 kts 67°
2026-04-29 22:45 55.04284 -1.67793 235 ft 25 kts 70°
2026-04-29 22:45 55.04333 -1.67562 235 ft 16 kts 95°
2026-04-29 22:45 55.04331 -1.67519 235 ft 0 kts 95°
2026-04-29 22:47 55.04331 -1.67516 236 ft 2 kts 90°
2026-04-29 22:47 55.04324 -1.67408 238 ft 14 kts 116°
2026-04-29 22:47 55.04230 -1.67353 237 ft 16 kts 211°
2026-04-29 22:47 55.04209 -1.67408 236 ft 1 kts 245°
2026-04-29 22:48 55.04120 -1.67734 236 ft 58 kts 245°
2026-04-29 22:48 55.03890 -1.68580 299 ft 91 kts 243°
2026-04-29 22:48 55.03613 -1.69625 480 ft 98 kts 242°
2026-04-29 22:48 55.03348 -1.70730 701 ft 100 kts 248°
2026-04-29 22:49 55.03093 -1.71859 911 ft 102 kts 245°
2026-04-29 22:49 55.02844 -1.73007 1144 ft 102 kts 245°
2026-04-29 22:49 55.02574 -1.74207 1320 ft 108 kts 245°
2026-04-29 22:49 55.02434 -1.75427 1688 ft 98 kts 264°
2026-04-29 22:50 55.02355 -1.76622 1938 ft 100 kts 257°
2026-04-29 22:50 55.02311 -1.77887 2109 ft 111 kts 278°
2026-04-29 22:50 55.02443 -1.79258 2258 ft 117 kts 277°
2026-04-29 22:50 55.02439 -1.80617 2518 ft 105 kts 236°
2026-04-29 22:51 55.01925 -1.81305 2680 ft 89 kts 184°
2026-04-29 22:51 55.01333 -1.81448 2850 ft 83 kts 173°
2026-04-29 22:51 55.00051 -1.81556 2880 ft 106 kts 176°
2026-04-29 22:52 54.99333 -1.81729 2980 ft 104 kts 181°
2026-04-29 22:52 54.98637 -1.81985 3092 ft 99 kts 182°
2026-04-29 22:52 54.97963 -1.82207 3164 ft 100 kts 179°
2026-04-29 22:52 54.97266 -1.82346 3245 ft 99 kts 175°
2026-04-29 22:53 54.96598 -1.82381 3314 ft 99 kts 170°
2026-04-29 22:53 54.95916 -1.82118 3236 ft 100 kts 139°
2026-04-29 22:53 54.95415 -1.81348 3264 ft 98 kts 148°
2026-04-29 22:53 54.94830 -1.80774 3264 ft 97 kts 145°
2026-04-29 22:54 54.94235 -1.80203 3266 ft 98 kts 143°
2026-04-29 22:54 54.93621 -1.79645 3267 ft 100 kts 148°
2026-04-29 22:54 54.92995 -1.79089 3274 ft 102 kts 148°
2026-04-29 22:54 54.92365 -1.78540 3315 ft 97 kts 148°
2026-04-29 22:55 54.91793 -1.78041 3410 ft 92 kts 147°
2026-04-29 22:55 54.91206 -1.77528 3491 ft 98 kts 148°
2026-04-29 22:55 54.90575 -1.76979 3496 ft 103 kts 148°
2026-04-29 22:55 54.89928 -1.76418 3499 ft 105 kts 148°
2026-04-29 22:56 54.89273 -1.75852 3493 ft 102 kts 148°
2026-04-29 22:56 54.88657 -1.75320 3490 ft 95 kts 148°
2026-04-29 22:56 54.88077 -1.74819 3489 ft 93 kts 148°
2026-04-29 22:56 54.87491 -1.74309 3489 ft 95 kts 148°
2026-04-29 22:57 54.86896 -1.73793 3494 ft 96 kts 148°
2026-04-29 22:57 54.86300 -1.73279 3490 ft 95 kts 147°
2026-04-29 22:57 54.85714 -1.72772 3492 ft 94 kts 147°
2026-04-29 22:57 54.85134 -1.72269 3493 ft 94 kts 148°
2026-04-29 22:58 54.84554 -1.71744 3490 ft 93 kts 139°
2026-04-29 22:58 54.84246 -1.70819 3494 ft 88 kts 122°
2026-04-29 22:58 54.83914 -1.69910 3499 ft 91 kts 121°
2026-04-29 22:58 54.83573 -1.68965 3504 ft 94 kts 121°
2026-04-29 22:59 54.83222 -1.67995 3503 ft 96 kts 121°
2026-04-29 22:59 54.82874 -1.67026 3498 ft 95 kts 121°
2026-04-29 22:59 54.82523 -1.66049 3499 ft 95 kts 121°
2026-04-29 22:59 54.82170 -1.65069 3501 ft 96 kts 121°
2026-04-29 23:00 54.81813 -1.64079 3499 ft 97 kts 121°
2026-04-29 23:00 54.81454 -1.63085 3495 ft 96 kts 121°
2026-04-29 23:00 54.81106 -1.62117 3485 ft 95 kts 121°
2026-04-29 23:00 54.80752 -1.61130 3489 ft 97 kts 121°
2026-04-29 23:01 54.80394 -1.60135 3490 ft 97 kts 121°
2026-04-29 23:01 54.80036 -1.59142 3488 ft 97 kts 121°
2026-04-29 23:01 54.79685 -1.58166 3488 ft 97 kts 121°
2026-04-29 23:01 54.79326 -1.57174 3488 ft 97 kts 121°
2026-04-29 23:02 54.78965 -1.56172 3488 ft 98 kts 121°
2026-04-29 23:02 54.78612 -1.55188 3485 ft 96 kts 121°
2026-04-29 23:02 54.78257 -1.54200 3484 ft 96 kts 121°
2026-04-29 23:02 54.77903 -1.53215 3482 ft 95 kts 121°
2026-04-29 23:03 54.77552 -1.52243 3481 ft 95 kts 121°
2026-04-29 23:03 54.77202 -1.51274 3480 ft 94 kts 121°
2026-04-29 23:03 54.76859 -1.50327 3476 ft 93 kts 121°
2026-04-29 23:03 54.76514 -1.49375 3477 ft 93 kts 121°
2026-04-29 23:04 54.76172 -1.48431 3476 ft 93 kts 121°
2026-04-29 23:04 54.75829 -1.47482 3476 ft 93 kts 121°
2026-04-29 23:04 54.75486 -1.46530 3478 ft 93 kts 121°
2026-04-29 23:04 54.75146 -1.45593 3479 ft 93 kts 121°
2026-04-29 23:05 54.74793 -1.44630 3481 ft 95 kts 121°
2026-04-29 23:05 54.74437 -1.43660 3481 ft 96 kts 121°
2026-04-29 23:05 54.74076 -1.42689 3487 ft 95 kts 121°